Flag for U.S.A. Weather past 2 weeks in San Jose, California, U.S.A.

Now
62 °F

Passing clouds.


Feels Like: 62 °F
Forecast: 51 / 64 °F
Wind: 8 mph from Northwest

Location: San Jose International Airport

Current Time: Dec 22, 2014 at 4:38:02 PM

Latest Report: Dec 22, 2014 at 3:53 PM


Visibility: 10 mi

Pressure: 30.18 "Hg

Humidity: 73%

Dew point: 53 °F

Location of San JoseLocation

Historic Weather in San Jose — Graph

°F

San Jose temperature yesterday

Maximum temperature yesterday: 62 °F (at 1:53 PM)
Minimum temperature yesterday: 56 °F (at 7:53 AM)
Average temperature yesterday: 59 °F

Past Weeks' High & Low Weather Summary

 TemperatureHumidityPressure
High71 °F (Dec 8, 2:53 PM)100% (Dec 8, 4:53 AM)30.32 "Hg (Dec 8, 4:53 AM)
Low43 °F (Dec 13, 3:53 AM)51% (Dec 8, 1:53 PM)29.55 "Hg (Dec 11, 6:53 AM)
Average55 °F85%30.05 "Hg
* Reported Dec 7 2:53 PM — Dec 22 2:53 PM, San Jose, Weather by CustomWeather, © 2014

Note: Actual official high and low records may vary slightly from our data, if they occured in-between our weather recording intervals... More about our weather records

Advertising

San Jose weather history for previous 24 hours

 ConditionsComfort  
Time TempWeatherWind HumidityBarometerVisibility
2:53 PM
Dec 22
62 °FPartly sunny.9 mph75%30.19 "Hg10 mi
1:53 PM62 °FPartly sunny.8 mph75%30.19 "Hg10 mi
12:53 PM61 °FPartly sunny.6 mph78%30.20 "Hg10 mi
11:53 AM60 °FPartly sunny.8 mph80%30.24 "Hg10 mi
10:53 AM59 °FMostly cloudy.8 mph84%30.27 "Hg10 mi
9:53 AM59 °FPartly sunny.8 mph87%30.28 "Hg10 mi
8:53 AM58 °FPartly sunny.5 mph93%30.27 "Hg10 mi
7:53 AM57 °FMostly cloudy.6 mph93%30.26 "Hg10 mi
6:53 AM58 °FPartly cloudy.7 mph93%30.26 "Hg10 mi
5:53 AM58 °FPartly cloudy.No wind93%30.25 "Hg10 mi
4:53 AM58 °FOvercast.No wind93%30.26 "Hg10 mi
3:53 AM58 °FOvercast.5 mph93%30.26 "Hg10 mi
2:53 AM58 °FMostly cloudy.5 mph93%30.27 "Hg10 mi
1:53 AM58 °FOvercast.3 mph93%30.27 "Hg10 mi
12:53 AM58 °FMostly cloudy.No wind93%30.27 "Hg10 mi
11:53 PM
Dec 21
58 °FMostly cloudy.3 mph93%30.28 "Hg10 mi
10:53 PM58 °FPassing clouds.8 mph93%30.29 "Hg10 mi
9:53 PM59 °FMostly cloudy.7 mph90%30.29 "Hg10 mi
8:53 PM59 °FPassing clouds.8 mph93%30.29 "Hg10 mi
7:53 PM59 °FPassing clouds.8 mph93%30.28 "Hg10 mi
6:53 PM59 °FPassing clouds.10 mph93%30.28 "Hg10 mi
5:53 PM59 °FPassing clouds.9 mph93%30.28 "Hg10 mi
4:53 PM61 °FPartly cloudy.9 mph87%30.27 "Hg10 mi
Weather by CustomWeather, © 2014

See weather overviewHow to use our weather pages